Wind_Speed
36 40 36 29 22 22 19 23 21 19 26 25 25 25 26 24 23 23 22 19 16 13 11 9 10 8 7 11 10 9 12 11 11
33 39 37 33 27 22 19 22 24 15 23 26 26 25 25 26 24 23 21 18 17 16 14 12 11 11 10 10 9 10 13 14 14
43 47 42 38 32 26 17 19 23 19 16 25 26 26 25 25 19 19 21 21 21 18 15 13 12 11 10 10 10 10 12 17 17
41 47 42 41 34 28 16 14 19 19 17 23 28 27 24 24 25 23 22 23 21 20 18 16 16 13 10 10 10 11 12 15 21
28 44 44 43 35 29 21 19 23 21 18 20 24 26 28 28 28 26 26 25 22 21 21 18 18 16 13 12 12 14 14 14 19
35 26 46 46 39 32 24 22 22 22 20 20 22 25 27 28 28 28 27 26 23 21 20 19 19 20 18 15 13 14 15 14 15
30 39 35 46 40 33 27 22 22 26 26 24 23 25 24 24 24 24 24 24 23 22 21 21 20 20 20 18 15 16 18 18 17
31 40 30 37 38 35 29 19 22 23 25 26 27 25 24 22 22 21 20 20 22 22 21 22 22 22 21 19 18 15 17 19 20
27 35 34 27 35 34 31 26 21 20 20 21 23 25 25 24 23 22 21 20 21 23 22 20 20 21 19 19 17 16 15 16 19
29 30 31 31 32 42 37 30 23 22 20 17 16 16 20 23 26 28 26 25 26 27 25 24 22 21 21 19 18 17 17 17 19
27 27 28 29 27 27 37 40 32 33 32 25 21 17 17 21 21 21 27 31 30 30 30 29 26 25 23 22 21 21 21 21 23
26 25 26 27 27 26 26 20 23 29 34 29 29 23 22 22 20 17 16 19 31 34 34 33 32 30 28 27 25 25 28 31 32
27 27 27 26 26 24 24 23 20 20 31 36 37 36 31 28 25 23 21 18 17 23 36 37 36 34 32 31 29 30 32 35 39
30 33 28 27 35 29 29 25 28 24 24 28 26 26 26 30 29 27 25 24 24 23 23 31 39 39 37 34 33 34 35 37 41
29 27 26 27 27 29 30 31 28 28 31 30 28 29 31 34 36 34 33 32 32 31 30 29 31 36 38 38 37 38 39 41 41
24 25 24 25 25 27 31 31 36 35 31 32 35 39 36 33 34 35 34 35 35 36 36 34 33 32 38 41 40 40 41 42 41
23 22 23 25 26 26 28 35 39 43 41 39 41 40 40 34 32 31 31 32 32 33 34 33 33 32 34 38 42 41 41 41 43
26 29 29 29 28 28 24 26 33 38 38 38 41 41 40 38 34 33 33 31 31 31 31 31 30 28 28 33 37 39 41 42 42
34 32 31 34 28 22 20 22 24 21 29 32 30 30 30 35 37 36 34 33 34 32 29 28 28 27 28 28 30 31 32 30 28
30 31 32 29 25 23 15 13 18 21 25 29 29 28 27 30 35 40 35 36 34 33 30 26 26 25 26 27 26 24 24 26 29
Wind_Direction
217 218 220 236 231 234 232 231 229 212 207 207 214 213 220 219 212 215 219 220 225 226 223 211 228 242 221 226 237 210 207 192 184
212 222 221 229 224 233 236 234 232 222 205 206 209 212 215 224 218 215 220 220 224 228 225 222 220 232 230 229 236 231 217 210 204
226 218 220 221 222 222 231 239 238 229 209 205 211 212 211 219 219 216 220 225 226 228 233 235 241 233 229 228 235 238 231 219 217
216 213 215 219 218 217 229 232 225 214 215 201 205 208 209 211 216 216 221 228 231 231 231 236 247 246 238 238 247 248 245 231 225
218 216 211 216 214 212 220 216 220 209 203 205 207 205 207 211 214 219 221 227 231 232 231 231 241 249 244 237 242 253 253 244 235
208 210 208 211 213 212 214 209 210 209 203 196 202 204 208 214 217 220 224 225 226 228 229 229 232 246 252 249 253 262 271 268 257
211 208 205 208 213 213 212 207 205 215 213 210 204 206 205 206 210 217 220 223 225 224 225 229 235 243 256 269 266 258 262 265 261
194 201 204 209 215 216 214 211 212 224 224 220 218 214 211 209 210 215 216 221 224 226 226 228 234 240 248 253 256 256 259 262 265
176 191 198 198 213 218 216 215 221 222 226 222 220 225 225 224 221 222 222 220 219 219 214 216 220 226 234 241 247 251 252 256 262
173 178 185 181 188 203 211 217 218 224 233 226 225 222 225 227 228 230 230 229 229 223 219 225 228 231 233 239 246 252 254 253 258
167 167 167 176 178 179 198 211 221 233 238 239 229 229 219 220 218 225 234 234 233 233 229 230 235 239 242 246 250 256 261 263 265
183 182 182 182 183 185 192 208 220 214 220 231 244 244 236 233 235 241 241 241 238 236 236 238 239 243 248 254 261 266 269 271 273
190 199 204 204 195 186 185 194 200 232 234 238 247 253 235 239 243 245 251 258 256 248 241 241 242 245 248 252 257 264 268 271 273
198 209 212 225 227 208 199 202 210 212 228 232 232 239 239 231 239 247 255 260 264 265 258 249 246 247 250 253 256 259 265 269 271
199 208 211 211 217 213 211 213 216 219 227 229 221 232 238 240 245 249 254 256 259 262 265 263 256 249 247 248 253 257 262 268 268
192 205 218 221 217 218 214 225 222 221 221 228 235 243 246 250 240 240 248 254 258 260 262 265 266 262 253 251 250 255 260 262 262
198 208 217 230 233 231 229 230 230 225 227 232 236 240 249 248 248 246 250 258 258 259 259 263 264 265 260 253 253 255 257 260 265
218 224 228 232 253 248 241 246 244 240 238 241 244 244 244 245 246 249 250 254 256 255 253 255 256 259 258 253 253 255 259 263 266
223 241 243 247 245 241 239 245 251 246 240 237 235 239 246 248 244 247 250 252 255 255 251 251 253 254 256 258 260 261 265 267 269
238 247 243 236 229 239 240 246 243 243 234 237 240 244 250 248 244 242 244 248 251 251 252 252 251 250 252 256 259 261 264 270 278
Height
3122 3124 3132 3136 3140 3146 3151 3154 3158 3161 3165 3169 3174 3179 3183 3187 3192 3196 3199 3203 3206 3209 3212 3215 3217 3218 3220 3222 3223 3226 3229 3231 3233
3116 3122 3124 3128 3136 3143 3147 3151 3153 3158 3161 3165 3169 3174 3180 3183 3188 3192 3196 3200 3203 3206 3209 3212 3214 3215 3218 3219 3221 3223 3226 3229 3231
3110 3112 3118 3123 3131 3138 3143 3147 3151 3154 3157 3160 3165 3170 3175 3181 3186 3189 3193 3195 3198 3202 3205 3208 3209 3212 3214 3216 3218 3219 3222 3226 3228
3103 3108 3113 3117 3126 3133 3139 3144 3148 3150 3153 3156 3159 3165 3172 3177 3180 3184 3188 3191 3195 3198 3202 3204 3206 3208 3211 3213 3214 3217 3219 3221 3225
3100 3104 3109 3112 3120 3129 3135 3140 3144 3147 3149 3153 3157 3162 3166 3170 3175 3179 3182 3186 3191 3194 3197 3201 3202 3204 3207 3210 3212 3212 3214 3218 3220
3096 3101 3105 3109 3117 3124 3131 3136 3141 3144 3146 3150 3155 3158 3162 3166 3170 3173 3177 3182 3186 3189 3192 3196 3199 3200 3202 3205 3208 3210 3212 3214 3216
3092 3099 3102 3106 3113 3119 3127 3133 3137 3141 3144 3148 3152 3156 3159 3162 3166 3169 3174 3178 3181 3184 3188 3191 3194 3197 3198 3200 3203 3206 3207 3209 3211
3089 3096 3100 3103 3109 3115 3122 3128 3134 3137 3141 3145 3148 3153 3156 3159 3163 3167 3171 3173 3177 3180 3183 3186 3189 3192 3194 3196 3197 3199 3202 3204 3205
3086 3091 3096 3101 3104 3111 3116 3123 3128 3133 3136 3141 3145 3148 3152 3156 3160 3163 3167 3170 3173 3176 3179 3181 3184 3187 3189 3191 3192 3195 3197 3199 3200
3082 3087 3093 3097 3102 3108 3113 3117 3123 3129 3133 3137 3140 3144 3147 3151 3155 3158 3162 3167 3169 3172 3175 3178 3180 3182 3185 3186 3188 3190 3192 3194 3195
3080 3082 3088 3094 3099 3105 3111 3115 3118 3124 3129 3132 3136 3139 3142 3145 3149 3152 3156 3160 3163 3166 3170 3173 3175 3177 3180 3181 3183 3185 3187 3189 3190
3074 3078 3083 3088 3093 3100 3105 3110 3116 3119 3124 3128 3131 3135 3138 3141 3144 3148 3151 3153 3156 3160 3163 3166 3169 3172 3174 3175 3177 3179 3181 3183 3183
3071 3076 3082 3088 3093 3097 3102 3106 3110 3114 3118 3122 3125 3129 3133 3136 3140 3143 3145 3147 3150 3152 3155 3158 3161 3164 3166 3168 3170 3172 3173 3174 3174
3067 3073 3079 3085 3090 3095 3098 3102 3105 3110 3113 3115 3121 3124 3127 3130 3133 3136 3139 3141 3142 3144 3146 3148 3151 3155 3157 3160 3162 3164 3164 3165 3164
3064 3069 3073 3077 3082 3087 3093 3097 3100 3103 3107 3111 3114 3117 3121 3125 3128 3130 3131 3133 3134 3136 3138 3140 3142 3144 3146 3149 3152 3154 3155 3156 3156
3061 3065 3070 3073 3077 3083 3087 3089 3093 3098 3101 3103 3106 3109 3113 3117 3120 3122 3123 3125 3126 3128 3129 3131 3132 3134 3136 3139 3141 3143 3145 3145 3146
3057 3061 3065 3070 3074 3077 3080 3082 3085 3090 3094 3097 3099 3101 3105 3109 3111 3114 3116 3117 3118 3119 3120 3122 3122 3123 3125 3128 3130 3133 3134 3135 3137
3053 3055 3059 3064 3067 3069 3071 3073 3077 3082 3087 3090 3091 3094 3096 3099 3103 3105 3108 3109 3110 3110 3111 3111 3112 3114 3115 3117 3119 3122 3123 3124 3126
3049 3050 3055 3059 3061 3062 3064 3067 3070 3073 3076 3080 3083 3086 3088 3091 3094 3096 3098 3101 3101 3101 3103 3103 3104 3106 3107 3109 3111 3113 3114 3114 3115
3043 3047 3050 3052 3054 3057 3060 3062 3064 3064 3066 3070 3075 3078 3080 3080 3083 3085 3089 3091 3092 3093 3095 3097 3098 3099 3100 3101 3103 3105 3106 3106 3107